Location: Grundy Observatory
(40.0525°N, 76.3328°W)
Time: 16:29:48
(UTC-04:00)

Daily predictions for brighter satellites

Satellite Brightness Start Highest point End
(mag) Time Altitude Azimuth Time Altitude Azimuth Time Altitude Azimuth
MSX 3.9 19:06:54 10° SSE 19:12:39 88° WSW 19:18:26 10° NNW
USA 215 3.9 19:07:29 10° ENE 19:13:26 36° SE 19:19:20 10° SSW
Cosmos 2369 Rocket 4.0 19:11:36 10° NNE 19:14:00 13° NE 19:16:25 10° ENE
SKYMED 2 3.6 19:10:12 10° NNE 19:14:34 83° ESE 19:18:55 10° S
Cosmos 1707 3.2 19:12:50 10° NNW 19:16:40 67° W 19:20:29 10° S
Cosmos 1408 Rocket 4.3 19:13:13 10° NNE 19:17:06 31° ENE 19:20:57 10° SE
Meteor 1-24 Rocket 3.7 19:12:26 10° N 19:18:04 73° E 19:23:28 10° SSE
IDEFIX/ARIANE 42P 3.7 19:13:15 10° S 19:18:20 51° W 19:23:27 10° NNW
Cosmos 1603 4.5 19:15:24 10° SSE 19:20:20 30° ESE 19:25:17 10° NE
GPS 2-04 Rocket1 4.3 19:18:22 10° SSW 19:20:44 17° SSE 19:23:07 10° ESE
Cosmos 1624 Rocket 4.2 19:16:32 10° NNW 19:21:46 80° WSW 19:26:56 10° SSE
CZ-2C R/B 4.2 19:20:39 10° SSW 19:25:14 37° W 19:29:42 10° NNW
NOAA 12 4.2 19:21:05 10° SSE 19:26:10 55° ENE 19:31:20 10° N
Aureole 2 Rocket 3.3 19:24:47 10° SSW 19:29:09 73° WNW 19:33:27 10° NNE
SL-8 R/B 4.4 19:25:26 10° SSW 19:29:47 36° SE 19:34:09 10° ENE
ATLAS CENTAUR R/B 3.4 19:27:25 10° SSW 19:31:59 77° SE 19:46:29 10° NE
SeaSat 1 4.2 19:35:14 11° ESE 19:35:14 11° ESE 19:36:29 10° ESE
Cosmos 2333 Rocket 4.3 19:30:25 10° WSW 19:35:23 29° NW 19:40:22 10° N
SAR-Lupe-1 3.9 19:32:13 10° SSE 19:35:45 76° ENE 19:39:19 10° N
Okean 3 Rocket 4.1 19:32:05 10° NNW 19:36:36 67° W 19:41:05 10° S
SJ-6B 2.8 19:33:16 10° SSE 19:37:13 74° ENE 19:41:18 10° N
Resurs 1-3 4.3 19:35:13 10° SE 19:39:07 32° ENE 19:43:03 10° N
In-Cosmos 22 4.3 19:33:25 10° N 19:39:07 57° ENE 19:44:45 10° SSE
Helios 1A 3.5 19:36:38 10° SE 19:40:30 37° ENE 19:44:25 10° N
FREGAT/IRIS 2.6 19:37:39 10° SSE 19:40:42 60° ENE 19:43:46 10° N
Meteor 1-29 3.9 19:37:42 10° NE 19:40:47 28° E 19:43:49 10° SSE
Resurs 01 Rocket 1.9 19:38:00 10° SE 19:42:15 46° ENE 19:46:30 10° N
CZ-4B DEB 4.4 19:41:22 16° E 19:42:20 18° ENE 19:44:36 10° NNE
Cosmos 1674 4.1 19:42:11 10° NNE 19:45:04 20° ENE 19:46:25 17° E
NOSS 3-2 (A) 3.8 19:40:01 10° SW 19:46:02 69° NW 19:52:39 10° NNE
Cosmos 1743 Rocket 4.3 19:42:18 10° NNE 19:46:16 31° ENE 19:50:11 10° SE
Cosmos 1758 3.3 19:45:51 10° S 19:49:52 60° E 19:53:55 10° NNE
ASTRO E2 4.4 19:46:52 10° WSW 19:50:04 23° S 19:52:46 12° SE
Cosmos 1452 Rocket 3.4 19:46:03 10° NNW 19:51:19 73° ENE 19:56:32 10° SSE
ATLAS 5 CENTAUR R/B 2.0 19:50:57 10° SW 19:55:42 77° NW 20:00:52 10° NNE
Abrixas 2.6 19:53:28 10° SW 19:56:23 51° SE 19:57:41 27° E
Nadezhda 4 Rocket 4.1 19:54:13 10° N 20:00:21 53° E 20:06:23 10° SSE
Cosmos 1346 3.3 19:58:40 10° N 20:01:33 43° ENE 20:02:37 29° SE
Meteor 2-12 Rocket 4.4 19:57:49 10° S 20:03:56 73° E 20:10:05 10° NNE
Cosmos 468 4.4 20:02:42 10° SSW 20:07:57 80° ESE 20:13:11 10° NNE
Meteor 1-21 Rocket 4.1 20:02:27 10° N 20:08:01 74° E 20:13:32 10° SSE
Cosmos 1092 Rocket 4.3 20:02:22 10° N 20:08:17 44° ENE 20:13:46 12° SSE
GP-B 4.2 20:05:01 10° NNE 20:08:20 24° ENE 20:08:20 24° ENE
ASTEX 1 3.6 20:07:14 10° NNE 20:11:58 46° E 20:16:38 10° SSE
Cosmos 1420 Rocket 4.0 20:07:11 10° NNW 20:12:28 62° ENE 20:16:34 17° SSE
SL-16 R/B 3.9 20:11:40 10° SW 20:16:50 35° WNW 20:22:02 10° N
CENTAUR R/B 2.7 20:11:54 10° S 20:17:30 44° ESE 20:23:45 10° NE
Helios 1B rocket 2.6 20:14:00 10° N 20:18:07 75° WNW 20:22:12 10° SSW
Cosmos 1544 3.1 20:15:23 10° S 20:19:06 88° W 20:22:52 10° N
Cosmos 1634 Rocket 4.2 20:17:11 10° SSE 20:23:02 45° E 20:28:54 10° NNE
NOSS 3-2 (C) 4.4 20:19:17 10° WSW 20:25:10 48° NW 20:31:37 10° NNE
CZ-2D R/B 3.3 20:24:44 45° ESE 20:25:36 56° ENE 20:29:26 10° N
Spot 2 Rocket 4.0 20:22:16 10° S 20:27:14 60° WSW 20:32:14 10° NNW
OAO 3 Rocket 3.8 20:24:11 10° WSW 20:28:42 44° S 20:30:04 35° SE
Cosmos 1048 Rocket 3.9 20:25:29 10° SSW 20:30:48 83° ESE 20:36:05 10° NNE
Cosmos 1269 Rocket 4.0 20:26:04 10° SSW 20:31:20 83° WNW 20:36:39 10° NNE
FENGYUN 3A 3.5 20:28:51 12° SSE 20:33:50 84° ENE 20:39:16 10° NNW
Cosmos-2242 4.1 20:30:19 10° SSW 20:34:31 46° W 20:38:46 10° N
Envisat 4.3 20:39:20 24° NE 20:39:20 24° NE 20:42:27 10° N
H-2A R/B 2.6 20:39:09 62° SSE 20:39:45 84° ENE 20:43:39 10° N
Gbstr 26 Del rocket 3.2 20:37:45 10° SW 20:42:09 64° SE 20:42:57 55° E
Cosmos 1953 4.4 20:39:44 10° SW 20:43:14 29° WNW 20:46:44 10° NNW
Cosmos 2151 3.8 20:39:49 10° N 20:42:41 36° NNE 20:42:41 36° NNE
Cosmos 1174 4.0 20:39:49 10° SSW 20:44:15 61° SSE 20:44:15 61° SSE
ISS -2.4 20:41:42 10° WSW 20:44:06 46° WSW 20:44:06 46° WSW
ALOS 2.5 20:42:16 17° S 20:45:50 68° WSW 20:50:29 10° NNW
BREEZE-M DEB (TANK) 3.7 20:38:53 10° WNW 20:50:37 54° N 20:52:04 40° NE
Cosmos 1842 Rocket 4.0 20:49:58 10° SSW 20:54:13 60° W 20:58:32 10° N
Cosmos 1500 Rocket 3.9 20:50:57 10° NNW 20:55:20 63° W 20:57:01 36° SSW
Cosmos 158 Rocket 3.6 20:51:04 10° SSW 20:55:57 84° ESE 21:00:50 10° NNE
USA 215 3.6 20:50:10 10° NE 20:56:37 63° NW 21:03:02 10° WSW
Cosmos 1943 3.0 20:53:15 10° SSW 20:58:53 88° ESE 21:04:32 10° NNE
Cosmos 1943 Rocket 3.1 20:53:54 10° N 20:58:07 32° NE 20:58:07 32° NE
Cosmos 2369 Rocket 2.1 20:53:19 10° NNW 20:59:00 77° ENE 20:59:46 65° SE
GPS 2-04 Rocket1 4.5 20:56:42 10° WSW 20:58:12 22° SW 20:58:12 22° SW
Cosmos 1470 4.0 21:01:36 10° SSW 21:05:17 41° WNW 21:08:58 10° N
Cosmos 2263 4.2 21:00:21 10° NNW 21:05:59 63° ENE 21:05:59 63° ENE
Cosmos 1733 4.3 21:08:47 45° WNW 21:08:47 45° WNW 21:12:16 10° N
Cosmos 1627 Rocket 4.3 21:03:35 10° N 21:09:50 85° E 21:11:13 57° SSE
SL-8 R/B 4.1 21:07:30 10° WSW 21:12:13 56° NNW 21:12:17 56° NNW
SeaSat 1 3.5 21:08:07 10° NNE 21:15:13 35° SSW 21:18:01 10° SSW
ERS-1 Rocket 3.7 21:15:22 43° N 21:15:22 43° N 21:18:52 10° N
Resurs 01 Rocket 4.5 21:16:14 10° SW 21:18:56 16° W 21:21:39 10° NW
Cosmos 1110 Rocket 4.4 21:18:09 10° NNW 21:22:20 56° N 21:22:20 56° N
Cosmos 839 Rocket 4.4 21:36:38 10° NW 21:43:55 62° WSW 21:44:15 61° SW
Cosmos 2279 Rocket 4.3 21:46:27 62° NW 21:46:27 62° NW 21:51:51 10° N
CENTAUR R/B 3.8 22:02:36 10° WSW 22:08:15 36° NW 22:14:36 10° NNE
Cosmos 1943 Rocket 4.4 22:37:42 10° NW 22:39:39 20° NW 22:39:39 20° NW
